Dewpoint
-6 -8 -4 -4 -4 -5 -5 -9 -13 -14 -13 -12 -12 -13 -11 -11 -9 2 10 11 13 12 11 10 8 7 8 8 7 7 6 5 8 11 12 11 12 11 10 9 8 7 6 7 8 8 9 9 9
-6 -0 -5 -5 -3 -4 -7 -11 -12 -12 -12 -12 -13 -13 -12 -11 -7 -0 2 7 13 13 12 11 8 9 9 8 7 7 5 6 9 11 13 12 12 12 11 10 9 9 8 8 8 8 8 9 9
-3 -2 -5 -4 -3 -3 -6 -10 -12 -13 -13 -14 -13 -12 -11 -6 -0 1 5 11 13 13 14 12 9 9 9 8 8 7 5 6 9 11 13 12 13 13 11 10 10 10 10 10 9 9 8 9 10
-3 -5 -5 -3 -3 -6 -7 -8 -12 -12 -12 -12 -13 -12 -10 -5 -2 3 7 12 13 13 14 12 9 9 10 8 8 7 6 5 8 10 12 13 13 13 12 10 10 10 11 11 10 9 8 9 11
-4 -4 -4 -3 -4 -6 -8 -9 -10 -10 -10 -10 -11 -10 -11 -3 -2 4 7 13 13 14 14 14 9 10 10 9 8 7 7 6 8 10 12 13 13 13 12 11 11 11 11 10 10 10 8 8 9
-4 -5 -2 -2 -4 -7 -8 -8 -8 -8 -8 -9 -9 -9 -9 -4 -3 1 6 13 15 14 14 14 13 11 9 10 9 8 7 6 7 8 10 11 11 11 10 10 11 11 11 10 10 9 9 9 9
-5 -4 -2 -3 -3 -4 -6 -7 -7 -7 -7 -8 -7 -7 -6 -5 -3 -3 1 9 13 14 15 16 14 11 10 10 10 9 8 7 7 8 8 8 9 9 10 10 11 11 11 10 10 9 9 9 10
-7 -6 -4 -4 -3 -4 -7 -7 -7 -7 -7 -5 -5 -6 -5 -3 -3 -4 -3 4 11 14 15 16 14 12 11 11 10 9 9 8 8 7 7 8 9 9 10 11 11 11 11 10 9 9 9 10 10
-8 -5 -3 -4 -4 -4 -7 -7 -7 -7 -6 -5 -5 -5 -5 -4 -5 -5 -5 -2 11 13 16 16 16 12 11 11 11 10 10 9 8 8 8 9 9 9 10 11 11 11 10 10 10 10 9 10 10
-6 -3 -3 -5 -6 -6 -8 -8 -8 -8 -8 -6 -6 -6 -5 -5 -6 -6 -5 -4 6 13 14 15 16 16 12 12 11 11 11 10 10 9 9 9 9 10 11 11 11 10 10 10 11 10 10 10 10
-6 -3 -5 -5 -6 -6 -7 -8 -8 -8 -8 -9 -8 -7 -7 -7 -7 -7 -6 -4 -3 -2 14 14 15 16 16 15 14 13 11 11 10 10 10 10 10 12 13 13 13 12 11 11 10 10 10 10 11
-5 -6 -6 -6 -7 -8 -8 -9 -9 -9 -8 -8 -8 -9 -9 -8 -9 -7 -6 -6 -6 -4 11 15 15 14 16 16 16 16 13 12 11 11 10 10 11 12 13 13 13 13 11 11 11 11 11 11 11
-5 -6 -7 -8 -8 -8 -9 -11 -10 -10 -10 -11 -11 -10 -10 -8 -7 -8 -7 -7 -7 -5 -0 12 14 15 14 16 14 16 15 15 13 14 12 11 12 13 12 13 13 13 12 10 11 12 13 13 12
-5 -5 -6 -8 -9 -8 -8 -9 -8 -8 -8 -9 -10 -10 -10 -9 -8 -7 -7 -7 -7 -5 -4 -1 10 14 15 14 15 15 15 14 14 14 15 14 12 13 14 13 13 14 14 13 10 12 13 13 13
-6 -5 -6 -6 -7 -5 -6 -5 -6 -8 -8 -8 -8 -8 -8 -9 -7 -7 -7 -7 -5 -5 -5 -3 -2 4 13 13 13 14 15 14 14 14 13 14 14 13 14 13 12 12 13 14 12 12 14 13 12
-5 -4 -1 -5 -6 -6 -6 -3 -7 -8 -8 -8 -8 -9 -9 -9 -8 -8 -8 -6 -4 -1 2 2 -2 -2 8 13 13 13 13 14 13 14 13 11 10 12 13 13 13 13 12 13 13 12 12 13 13
-3 1 -0 -2 -6 -6 -6 -5 -7 -7 -8 -8 -7 -8 -9 -9 -9 -8 -5 -1 2 3 5 6 6 4 -2 9 13 13 13 13 13 13 13 13 11 13 13 10 10 10 13 12 12 13 11 12 13
-1 -3 -4 -3 -6 -7 -6 -5 -7 -8 -8 -8 -8 -8 -9 -9 -9 -1 1 4 5 5 6 7 7 7 6 3 2 9 11 11 12 13 13 13 13 12 14 13 10 12 10 12 13 14 12 13 12
-4 -3 -3 -4 -6 -5 -5 -7 -7 -8 -9 -9 -8 -9 -10 -10 -3 2 4 5 5 5 6 6 6 7 7 5 5 7 4 7 10 12 13 13 13 13 13 13 13 12 11 6 11 14 14 12 12
-4 -3 -3 -5 -7 -6 -6 -7 -9 -9 -9 -10 -9 -9 -10 -10 -0 3 3 4 4 4 4 4 4 5 5 6 7 6 6 3 5 9 11 11 13 13 13 14 14 13 12 9 7 13 13 11 12
-6 -5 -3 -5 -8 -7 -6 -6 -7 -8 -8 -9 -9 -10 -6 -4 2 2 2 2 3 3 3 4 4 4 3 4 3 5 6 5 1 4 8 11 12 12 13 13 14 14 13 12 9 10 11 9 12
-4 -5 -4 -5 -4 -1 -6 -2 -5 -8 -10 -10 -10 -2 1 2 1 1 2 2 2 2 2 3 3 3 3 2 1 2 4 5 5 6 6 8 10 9 11 12 14 13 13 13 11 11 8 9 12
-2 -4 -2 -2 -0 1 -3 -2 -5 -8 -9 -9 -3 2 2 2 2 1 1 1 1 1 2 2 2 2 2 1 2 2 2 3 2 3 4 4 7 10 9 11 12 14 13 13 12 12 11 9 9
-7 -6 -3 -1 -2 2 -2 -3 -4 -7 -6 -7 2 2 2 2 1 1 0 0 0 0 1 1 1 1 1 1 2 2 3 3 3 3 2 2 2 8 12 11 10 9 12 12 13 13 13 11 9
-5 -3 -0 5 3 2 -5 -4 -5 5 2 4 3 1 1 -0 -0 -1 -1 -1 -0 -0 -0 0 1 1 0 1 1 2 3 4 4 4 4 4 3 3 9 11 10 10 11 10 12 13 13 13 12
-4 -2 4 4 3 2 4 3 3 3 4 3 1 -0 -1 -2 -2 -1 -1 -1 -1 -1 -1 -0 -1 -1 -0 1 2 2 3 3 4 4 5 5 5 3 5 11 11 12 12 11 11 12 12 13 12
-2 -0 -1 3 3 3 1 3 6 2 2 0 -1 -1 -2 -3 -3 -3 -2 -2 -1 -1 -1 -1 -1 -1 -0 1 1 2 2 3 4 4 5 6 7 5 4 8 11 9 12 12 10 11 12 12 13
-7 -8 -0 5 7 3 -2 -3 5 5 3 1 -1 -2 -3 -4 -4 -3 -3 -2 -2 -2 -2 -2 -2 -2 -1 -0 0 1 2 2 3 4 5 6 7 7 4 4 11 11 12 12 10 11 11 11 12
-5 -6 -6 -3 -2 5 1 -0 4 5 4 3 -2 -3 -4 -4 -4 -3 -3 -2 -2 -3 -3 -3 -3 -2 -2 -1 -1 -0 1 2 3 3 5 7 7 8 6 3 9 11 12 11 11 12 11 11 11
-7 -5 -4 -0 -2 -2 -2 -2 2 3 1 -2 -3 -4 -4 -4 -4 -3 -3 -3 -3 -3 -3 -3 -3 -4 -2 -1 -1 -0 0 2 3 4 7 8 9 10 10 7 10 11 10 11 11 11 11 11 11
Wind_Speed
5 2 6 11 6 7 15 17 6 5 4 11 8 5 11 9 8 5 11 12 6 9 9 15 23 21 19 17 15 13 13 12 12 11 12 13 12 9 8 8 7 7 8 8 8 8 7 7 7
6 5 10 10 8 10 13 6 6 15 15 8 1 6 7 5 5 6 9 15 7 7 10 14 25 22 19 17 16 14 14 13 12 12 12 14 12 10 9 8 7 7 7 8 8 7 7 7 7
3 2 11 5 10 13 14 4 7 13 6 2 1 4 8 3 9 6 12 12 6 7 13 15 26 23 19 18 16 15 15 14 13 13 14 15 13 11 9 9 8 8 6 7 7 7 7 7 7
4 6 10 8 16 18 20 14 10 8 7 4 5 7 2 2 2 4 8 8 3 7 11 11 26 23 20 19 18 16 15 14 14 14 15 15 13 12 10 10 9 9 7 8 8 8 8 8 7
8 11 11 14 19 19 17 21 10 5 5 10 6 11 11 8 5 3 7 6 1 6 14 12 19 23 22 20 18 16 15 15 15 15 15 15 14 12 11 11 10 9 8 8 8 9 9 8 8
11 14 11 14 18 18 14 7 2 5 9 13 11 15 11 8 4 4 7 5 1 7 15 15 16 23 23 21 19 17 16 15 15 15 16 16 15 14 13 13 12 10 10 9 9 10 10 9 10
13 10 16 19 19 20 21 15 3 6 10 12 10 4 5 4 5 5 5 11 3 9 12 12 18 22 24 22 20 19 17 16 16 16 16 16 16 15 15 15 14 12 12 11 10 11 11 11 11
15 9 18 17 17 20 23 4 7 8 10 4 4 3 8 4 6 8 4 9 10 9 15 17 15 24 27 25 23 21 20 18 16 16 17 16 16 16 16 17 16 15 14 13 12 12 13 12 12
14 6 12 20 19 19 20 12 6 7 5 15 10 14 18 16 13 10 8 9 9 8 13 17 16 22 29 27 26 24 22 20 19 19 19 18 18 18 19 20 18 17 16 15 15 14 15 14 14
16 11 18 19 19 18 17 19 20 17 15 15 12 17 14 16 14 11 11 11 10 11 11 14 18 17 26 27 27 25 24 23 22 22 21 21 20 20 21 21 21 19 19 18 17 17 16 16 16
20 18 18 22 27 27 22 20 22 22 17 19 15 19 19 13 13 12 14 13 13 13 15 17 23 21 22 20 21 25 27 26 25 24 23 22 21 19 14 15 17 20 21 21 21 20 20 19 17
21 26 25 27 27 25 20 28 25 25 24 22 21 19 17 18 17 13 15 15 14 8 12 18 17 18 26 27 22 19 22 25 26 26 25 24 24 20 20 21 23 21 20 23 23 20 20 20 18
20 21 27 29 27 25 28 23 24 28 28 26 24 19 17 16 16 16 17 16 12 10 11 12 15 14 15 22 23 21 18 23 20 19 20 25 22 23 22 25 22 24 18 17 21 18 17 17 15
27 30 29 23 24 27 25 24 24 26 26 28 21 22 22 22 19 18 16 15 13 7 3 2 6 15 15 18 22 21 20 24 22 25 23 22 25 21 26 23 23 23 23 20 18 20 22 22 21
22 20 22 25 30 26 30 27 25 28 29 29 28 23 20 17 16 16 16 13 5 2 5 4 10 7 13 13 18 23 20 24 23 25 27 28 28 30 26 28 27 25 23 23 19 21 20 19 21
24 24 21 18 22 28 28 27 18 22 20 15 19 19 22 18 14 15 14 7 2 1 4 3 11 13 15 13 15 18 22 20 28 24 28 26 31 30 32 35 31 28 27 24 24 22 28 23 23
16 20 24 28 23 21 16 22 14 16 10 7 12 15 17 14 15 15 10 5 3 4 6 5 8 12 17 21 21 21 20 22 26 27 27 30 26 32 32 33 32 36 30 28 27 27 25 26 27
19 19 23 24 21 16 19 20 17 24 22 13 15 17 17 16 16 12 9 4 5 3 4 4 5 8 13 15 21 27 27 23 26 28 30 30 31 30 34 33 33 30 40 39 28 28 27 28 28
22 25 28 26 26 27 22 20 17 17 22 19 21 24 22 20 10 13 9 6 6 3 4 5 6 7 9 9 11 11 14 20 24 27 32 31 32 34 34 37 38 38 35 38 41 29 32 34 28
27 28 28 25 26 22 25 24 22 20 20 24 26 23 21 22 16 11 9 6 8 6 7 7 7 8 9 8 13 16 20 26 24 26 28 37 37 36 40 38 38 41 41 37 35 37 37 35 31
25 25 25 29 26 27 23 24 22 20 27 31 29 22 9 18 20 13 6 7 5 7 10 10 10 10 12 13 14 15 18 22 28 30 29 26 32 37 40 41 43 42 44 43 39 39 45 42 34
22 21 26 25 20 16 22 18 22 20 22 20 30 17 22 16 13 8 7 5 6 7 10 14 16 16 14 18 19 18 21 24 24 26 27 24 28 39 42 44 43 45 48 45 41 40 40 40 35
23 22 18 21 14 20 23 16 15 23 20 16 16 28 23 16 11 8 7 6 7 10 12 15 17 18 19 21 21 24 27 29 31 33 35 39 33 24 43 46 44 45 45 46 45 42 42 42 42
15 17 20 21 13 15 25 18 17 19 16 10 21 24 19 15 11 6 5 8 11 13 15 16 17 19 22 23 24 26 28 31 34 36 39 39 44 36 31 47 47 47 43 42 43 42 43 43 44
14 13 7 4 7 15 18 16 16 15 20 20 19 19 16 15 10 7 11 13 15 18 20 20 21 24 24 25 27 28 30 32 35 37 39 41 44 46 41 37 46 51 47 45 44 45 44 42 41
9 10 6 6 7 13 10 10 4 13 17 23 22 17 15 15 9 10 12 14 17 20 22 24 28 30 29 29 30 31 32 34 37 38 39 43 45 48 45 32 42 46 42 39 45 44 47 45 42
12 14 17 6 13 11 11 6 7 13 14 15 15 15 13 11 11 12 14 15 18 20 22 24 31 33 31 32 32 33 33 34 37 39 39 42 46 49 48 39 37 46 43 40 41 50 50 45 44
8 2 3 2 4 10 13 12 6 8 9 8 10 10 10 12 14 16 17 17 18 19 21 24 27 29 31 32 31 32 32 34 36 36 38 42 45 44 48 46 36 45 47 40 38 46 48 47 43
10 11 7 4 5 4 6 4 6 9 7 7 5 7 11 16 18 18 19 19 20 23 23 25 29 30 30 29 28 29 30 32 32 32 31 32 34 40 45 46 42 46 45 39 41 46 47 44 42
6 9 12 9 11 8 9 10 8 10 8 4 4 5 10 11 13 14 16 18 21 23 24 27 29 31 30 27 25 26 26 25 24 23 23 23 16 23 26 41 43 47 46 39 38 46 45 43 40
Wind_Direction
247 260 340 288 249 226 264 263 294 97 148 70 29 344 341 326 332 52 101 42 38 258 230 208 198 192 184 182 184 188 188 187 190 193 196 197 193 191 187 181 176 176 176 181 189 190 189 195 202
222 265 268 273 249 268 262 272 64 62 76 87 32 270 250 274 9 34 5 355 10 240 232 214 201 194 188 187 187 190 188 186 190 196 203 202 201 199 195 191 186 185 189 188 194 199 199 197 219
164 282 270 231 235 255 279 49 53 58 49 9 336 200 289 39 47 7 343 345 351 173 246 222 200 195 190 191 192 192 188 184 186 195 202 200 205 207 206 201 195 195 203 194 205 210 210 214 231
312 241 253 263 264 276 286 317 97 133 162 182 293 287 140 153 63 5 347 346 328 168 233 227 198 198 193 193 198 194 189 184 184 189 195 200 208 213 214 211 207 205 213 210 216 223 219 222 230
261 274 253 264 267 265 268 272 104 205 295 296 266 267 294 173 133 355 358 0 244 183 216 235 203 201 196 198 201 196 193 189 186 190 195 201 208 216 222 220 218 217 221 224 231 238 229 229 236
257 245 271 266 271 274 288 67 91 278 271 262 248 251 266 146 132 16 356 323 131 210 223 223 219 210 200 200 203 199 199 196 194 194 198 203 209 215 219 222 224 227 233 234 238 243 242 238 241
254 276 265 280 288 295 299 17 16 307 296 280 305 212 261 169 71 10 0 313 261 176 237 235 226 213 206 202 203 205 204 201 201 202 204 207 211 214 218 221 225 224 235 243 246 244 243 246 246
250 281 270 266 274 284 294 356 11 320 289 20 341 211 236 21 359 341 327 296 308 210 212 237 228 213 207 205 205 206 206 206 206 209 210 213 215 216 218 220 224 227 233 238 244 244 245 248 249
243 245 251 256 262 275 330 334 321 320 300 303 288 256 273 306 317 314 303 278 260 272 218 217 243 213 209 209 207 207 207 208 207 210 212 214 217 217 217 219 223 228 231 238 244 245 244 247 249
221 235 245 262 282 295 310 307 318 311 282 238 259 270 268 277 294 299 299 281 250 257 250 218 226 222 210 212 213 211 212 212 211 212 214 216 218 222 223 223 227 229 232 234 238 242 245 248 252
236 244 260 273 286 300 300 292 289 286 275 273 271 268 280 291 296 295 284 274 272 275 237 230 226 219 204 204 226 216 216 217 214 217 219 218 218 215 224 230 238 238 234 236 238 242 244 249 250
256 255 261 272 276 284 284 289 285 279 279 278 279 281 280 272 268 271 266 271 276 278 253 244 239 243 223 202 201 229 224 222 226 221 219 219 216 215 209 228 232 239 249 239 240 242 250 251 250
269 268 271 274 269 267 273 265 272 274 278 279 274 268 265 265 258 258 257 262 269 277 254 250 244 247 238 207 213 211 215 227 227 231 230 219 217 213 210 220 231 243 244 254 233 232 241 245 243
283 287 287 279 279 275 271 263 262 265 269 268 262 263 256 253 252 254 257 251 250 241 145 265 259 248 231 222 218 216 216 227 238 211 217 229 215 216 212 222 220 236 245 244 247 228 233 234 237
270 275 276 265 267 266 263 261 255 261 260 257 261 247 247 241 237 244 246 246 205 278 282 274 236 271 265 246 238 229 215 224 235 244 227 215 223 210 220 219 222 221 239 246 251 221 226 236 240
275 274 272 266 264 255 236 258 266 267 268 258 236 254 255 250 227 229 234 203 149 248 312 299 241 236 223 219 242 258 231 220 226 236 248 243 226 224 218 221 215 211 223 239 241 234 231 226 234
250 264 267 278 264 260 204 259 269 241 255 235 249 246 232 220 223 228 170 155 107 2 320 314 274 259 243 223 217 222 238 244 229 234 238 250 241 231 225 235 229 218 208 219 239 237 237 222 229
268 266 271 278 282 270 241 244 245 266 267 235 238 248 257 237 223 146 132 105 66 13 358 317 287 273 263 257 241 235 232 243 245 235 238 236 245 234 231 224 241 236 216 212 208 234 231 223 232
264 269 276 281 288 297 293 284 276 256 271 263 235 227 236 252 140 129 105 81 66 10 327 334 345 333 314 288 263 257 261 247 251 248 241 241 237 239 234 230 228 241 238 230 212 224 232 226 226
275 276 279 280 282 276 277 276 275 272 269 255 248 234 218 220 140 125 99 74 38 351 324 349 343 321 301 298 268 259 251 236 238 231 237 246 237 241 237 231 225 236 242 239 228 211 226 222 222
263 269 277 278 280 284 286 275 261 261 258 253 241 233 163 140 110 104 85 50 10 332 331 336 329 320 316 311 295 284 267 258 252 254 247 247 238 238 239 237 234 230 240 240 232 221 224 230 220
264 278 294 297 291 290 280 275 269 266 265 230 221 141 101 91 84 80 60 27 347 342 331 320 318 320 319 300 296 290 282 278 265 249 247 244 253 249 244 242 237 237 239 244 237 229 229 227 220
278 279 281 297 308 281 277 276 261 275 268 177 127 108 104 100 85 56 35 3 356 350 342 325 322 321 311 306 302 295 286 278 270 262 250 239 239 248 243 241 237 236 241 242 240 232 230 226 228
304 306 263 262 244 262 258 264 269 262 283 189 99 111 114 98 74 49 24 4 356 344 339 334 325 316 311 306 303 298 293 289 283 277 268 254 245 243 246 238 240 244 242 235 237 240 235 228 228
291 281 286 269 241 254 259 254 259 33 75 104 120 113 95 82 72 44 20 8 357 349 344 335 324 317 316 313 306 300 295 291 287 283 278 272 257 247 242 247 243 240 239 237 236 239 241 235 223
262 280 211 265 261 271 314 283 163 97 83 92 93 97 90 78 60 43 21 8 356 348 339 331 320 318 318 314 309 303 299 295 288 284 278 273 265 252 247 260 245 239 237 237 236 237 238 236 230
258 238 249 286 280 279 253 196 111 95 85 76 87 87 71 60 42 28 17 8 354 345 339 327 318 318 318 315 311 306 301 296 291 287 281 274 269 257 250 240 251 249 249 244 237 235 237 232 229
245 337 225 191 252 250 254 260 86 168 108 88 84 68 51 36 23 18 13 4 355 345 336 330 324 324 323 318 315 311 308 302 296 288 283 277 270 261 245 244 241 242 246 241 238 232 232 231 231
215 234 223 240 231 303 309 308 69 96 114 126 78 57 34 27 16 7 3 358 351 343 342 333 337 333 329 324 321 319 317 309 295 286 279 274 270 262 245 241 233 239 239 237 234 229 227 226 232
292 246 251 241 253 261 276 288 132 154 156 106 86 63 39 27 14 4 1 354 351 346 341 340 341 341 338 331 328 328 325 312 303 291 282 268 287 271 255 240 228 234 233 230 230 227 225 225 228
Height
1499 1499 1499 1501 1503 1488 1480 1460 1438 1446 1452 1460 1465 1467 1469 1468 1467 1479 1478 1477 1477 1475 1477 1480 1483 1485 1487 1490 1494 1497 1499 1502 1504 1507 1509 1512 1515 1517 1519 1520 1522 1523 1524 1526 1527 1528 1530 1531 1532
1498 1500 1502 1498 1496 1488 1466 1442 1449 1454 1460 1465 1468 1470 1470 1468 1469 1473 1474 1476 1475 1474 1475 1478 1482 1484 1487 1490 1493 1496 1498 1501 1504 1507 1509 1512 1515 1517 1519 1520 1522 1523 1525 1527 1528 1529 1530 1530 1532
1499 1500 1502 1488 1482 1485 1466 1448 1452 1460 1465 1467 1468 1469 1469 1469 1472 1476 1477 1476 1475 1477 1473 1475 1480 1484 1487 1490 1493 1495 1498 1500 1503 1506 1509 1512 1515 1517 1519 1520 1522 1523 1525 1527 1528 1529 1530 1531 1531
1500 1502 1499 1489 1480 1463 1454 1446 1452 1459 1464 1468 1469 1469 1469 1471 1474 1476 1477 1477 1477 1478 1474 1474 1479 1483 1486 1489 1492 1494 1497 1499 1502 1504 1508 1511 1514 1516 1518 1519 1521 1523 1525 1527 1528 1529 1530 1531 1531
1502 1499 1491 1482 1472 1460 1452 1447 1453 1460 1463 1466 1468 1469 1469 1470 1473 1475 1476 1476 1477 1478 1475 1475 1478 1481 1484 1488 1491 1493 1496 1499 1501 1504 1506 1510 1512 1515 1518 1520 1521 1523 1524 1526 1527 1529 1530 1530 1530
1500 1494 1492 1485 1466 1451 1446 1449 1454 1459 1462 1465 1466 1468 1471 1471 1472 1474 1474 1474 1476 1477 1475 1476 1477 1480 1483 1486 1489 1492 1495 1498 1500 1502 1504 1507 1510 1513 1516 1518 1520 1522 1524 1526 1526 1527 1530 1529 1530
1499 1491 1488 1478 1471 1462 1454 1453 1456 1459 1462 1463 1463 1465 1471 1471 1471 1473 1474 1472 1474 1477 1474 1474 1476 1478 1481 1484 1487 1491 1494 1496 1498 1501 1503 1505 1508 1510 1513 1516 1518 1520 1523 1525 1526 1527 1528 1529 1529
1496 1493 1490 1481 1477 1468 1456 1455 1459 1463 1465 1465 1467 1468 1471 1471 1472 1473 1473 1472 1471 1474 1475 1472 1473 1475 1479 1481 1484 1487 1491 1493 1496 1499 1501 1504 1506 1509 1511 1514 1516 1518 1520 1522 1524 1525 1527 1527 1528
1493 1494 1489 1478 1472 1462 1457 1459 1462 1463 1465 1468 1469 1469 1469 1469 1471 1472 1472 1473 1470 1470 1473 1474 1471 1473 1476 1479 1482 1485 1488 1491 1493 1496 1499 1501 1504 1506 1508 1511 1513 1516 1517 1520 1521 1523 1524 1525 1526
1486 1485 1478 1471 1464 1461 1461 1464 1464 1465 1463 1465 1467 1468 1469 1470 1469 1470 1471 1471 1471 1468 1469 1472 1472 1472 1473 1477 1479 1482 1485 1488 1491 1493 1495 1498 1501 1503 1506 1508 1511 1512 1515 1516 1518 1519 1521 1523 1524
1481 1477 1473 1469 1467 1465 1463 1466 1466 1466 1463 1463 1464 1466 1466 1466 1468 1469 1470 1470 1469 1469 1465 1466 1469 1471 1473 1476 1477 1479 1481 1485 1487 1490 1493 1496 1498 1501 1504 1506 1508 1509 1511 1513 1515 1516 1518 1520 1523
1477 1472 1470 1468 1467 1466 1465 1464 1463 1462 1462 1462 1462 1462 1463 1465 1466 1467 1468 1467 1467 1466 1465 1464 1465 1467 1469 1474 1476 1477 1479 1482 1484 1487 1489 1492 1495 1498 1501 1504 1504 1506 1508 1509 1512 1513 1515 1517 1520
1470 1468 1466 1464 1461 1461 1460 1458 1459 1458 1461 1460 1459 1460 1460 1461 1463 1463 1464 1464 1464 1465 1466 1463 1464 1463 1466 1470 1474 1475 1477 1478 1481 1484 1486 1488 1491 1495 1497 1500 1503 1503 1504 1505 1507 1511 1513 1515 1517
1472 1468 1463 1461 1462 1459 1456 1450 1452 1452 1454 1454 1455 1456 1457 1458 1460 1461 1460 1461 1462 1462 1463 1463 1465 1464 1464 1465 1471 1473 1476 1477 1479 1482 1483 1484 1487 1490 1494 1496 1498 1500 1501 1502 1503 1506 1510 1512 1514
1468 1466 1461 1458 1457 1452 1454 1444 1443 1444 1443 1445 1448 1450 1453 1454 1456 1458 1459 1459 1457 1460 1461 1460 1462 1464 1463 1463 1467 1469 1471 1476 1475 1475 1480 1481 1483 1486 1489 1492 1494 1497 1499 1499 1501 1503 1506 1508 1509
1471 1464 1460 1447 1445 1440 1445 1436 1437 1437 1431 1433 1439 1444 1448 1451 1452 1454 1455 1455 1456 1458 1458 1459 1460 1461 1462 1463 1466 1467 1469 1470 1474 1474 1474 1476 1478 1481 1483 1486 1488 1491 1496 1496 1496 1498 1501 1504 1505
1465 1462 1455 1439 1435 1427 1430 1434 1435 1433 1432 1434 1436 1438 1441 1446 1449 1450 1451 1453 1454 1457 1458 1460 1460 1460 1459 1460 1460 1462 1465 1467 1469 1471 1471 1470 1473 1474 1478 1479 1482 1487 1488 1491 1492 1493 1495 1499 1500
1458 1450 1437 1431 1424 1420 1421 1425 1428 1431 1429 1431 1435 1436 1437 1440 1444 1446 1450 1452 1454 1457 1460 1460 1460 1459 1458 1458 1458 1459 1460 1462 1464 1465 1466 1468 1467 1470 1472 1474 1474 1478 1482 1484 1487 1488 1491 1493 1495
1452 1450 1445 1434 1430 1429 1422 1420 1418 1423 1425 1425 1425 1429 1433 1436 1441 1445 1449 1454 1456 1458 1460 1460 1458 1457 1456 1456 1455 1455 1456 1457 1460 1460 1462 1462 1464 1464 1466 1467 1469 1469 1472 1476 1482 1483 1485 1489 1491
1448 1445 1439 1433 1429 1430 1425 1419 1414 1417 1418 1419 1419 1418 1424 1429 1436 1444 1448 1451 1454 1459 1458 1457 1456 1454 1452 1452 1451 1451 1450 1450 1450 1451 1453 1455 1458 1457 1457 1460 1462 1463 1464 1468 1472 1476 1476 1481 1488
1442 1443 1439 1435 1429 1425 1422 1418 1413 1413 1411 1409 1410 1412 1416 1423 1433 1443 1449 1451 1456 1459 1456 1455 1453 1451 1449 1447 1446 1445 1444 1444 1444 1447 1447 1448 1450 1451 1448 1452 1454 1456 1457 1459 1462 1467 1469 1471 1478
1438 1434 1434 1432 1432 1438 1426 1425 1411 1402 1390 1387 1400 1409 1418 1428 1437 1445 1449 1455 1458 1455 1454 1451 1449 1447 1445 1443 1441 1440 1439 1438 1438 1438 1438 1438 1442 1443 1442 1445 1445 1447 1450 1452 1455 1458 1460 1464 1468
1433 1432 1438 1439 1447 1446 1434 1428 1414 1401 1389 1389 1398 1410 1423 1431 1439 1446 1453 1457 1456 1453 1451 1448 1446 1444 1441 1438 1437 1435 1433 1431 1429 1429 1429 1429 1430 1431 1433 1433 1436 1437 1441 1445 1446 1449 1452 1454 1458
1433 1433 1433 1437 1442 1451 1428 1429 1419 1402 1389 1385 1401 1417 1427 1432 1439 1449 1454 1455 1453 1451 1449 1446 1444 1441 1437 1433 1431 1429 1426 1423 1421 1421 1420 1421 1421 1421 1424 1422 1425 1430 1432 1437 1439 1442 1444 1446 1448
1437 1442 1450 1459 1451 1437 1422 1422 1408 1418 1400 1403 1416 1427 1433 1436 1444 1449 1450 1450 1449 1448 1445 1442 1439 1436 1432 1428 1425 1422 1419 1417 1414 1412 1410 1410 1411 1411 1411 1416 1416 1416 1420 1427 1432 1433 1435 1438 1441
1436 1442 1463 1457 1448 1435 1440 1426 1414 1423 1424 1423 1424 1434 1438 1440 1447 1448 1448 1447 1447 1445 1442 1438 1433 1429 1426 1422 1419 1416 1412 1409 1405 1402 1400 1398 1398 1399 1401 1406 1407 1396 1405 1415 1423 1427 1427 1429 1433
1437 1440 1441 1452 1452 1444 1429 1421 1424 1421 1429 1434 1434 1439 1441 1446 1449 1448 1447 1446 1445 1443 1440 1436 1430 1426 1422 1417 1412 1408 1405 1401 1396 1392 1389 1387 1386 1386 1390 1394 1397 1397 1400 1405 1410 1416 1418 1422 1425
1434 1434 1444 1458 1453 1435 1413 1404 1429 1430 1433 1438 1441 1444 1446 1446 1447 1447 1446 1446 1445 1443 1439 1434 1429 1424 1419 1413 1407 1401 1397 1392 1386 1382 1377 1375 1373 1374 1377 1382 1387 1389 1390 1396 1399 1404 1409 1414 1418
1437 1437 1437 1439 1444 1447 1431 1420 1429 1434 1438 1442 1441 1443 1443 1442 1445 1447 1447 1446 1444 1440 1436 1431 1426 1421 1414 1407 1402 1396 1389 1383 1377 1372 1368 1365 1362 1361 1362 1368 1375 1378 1381 1385 1389 1393 1399 1405 1411
1427 1426 1431 1440 1441 1437 1436 1434 1426 1433 1436 1439 1440 1441 1444 1447 1450 1450 1449 1447 1444 1440 1435 1429 1423 1417 1409 1402 1397 1390 1383 1376 1369 1363 1359 1356 1352 1350 1351 1355 1362 1367 1369 1375 1379 1384 1390 1397 1405